Change the Weather History Date:

Sunday, December 30, 2012

  Actual Average Record
Temperature  
Mean Temperature 22 °F 26 °F  
Max Temperature 24 °F 33 °F 68 °F (1990)
Min Temperature 19 °F 19 °F -7 °F (1917)
Degree Days  
Heating Degree Days 44 39  
Month to date heating degree days 1088  
Since 1 July heating degree days 2545  
Cooling Degree Days 0 0  
Month to date cooling degree days 0  
Year to date cooling degree days 382  
Moisture  
Dew Point 19 °F    
Average Humidity 86    
Maximum Humidity 93    
Minimum Humidity 80    
Precipitation  
Precipitation 0.02 in 0.07 in 1.24 in (1954)
Month to date precipitation 2.49  
Year to date precipitation 33.54  
Sea Level Pressure  
Sea Level Pressure 30.05 in    
Wind  
Wind Speed 22 mph (West)    
Max Wind Speed 30 mph    
Max Gust Speed 43 mph    
Visibility 3 miles    
Events Snow    
T = Trace of Precipitation, MM = Missing Value Source: NWS Daily Summary

Daily Weather History Graph

Daily Weather History Graph

Search for Another Location

Airport or City:

Trip Planner

Search our weather history database for the weather conditions in past years. The results will help you decide how hot, cold, wet, or windy it might be!

Date:

Astronomy

Dec. 30, 2012 Rise Set
Actual Time 7:37 AM EST 4:58 PM EST
Civil Twilight 7:07 AM EST 5:29 PM EST
Nautical Twilight 6:33 AM EST 6:03 PM EST
Astronomical Twilight 6:00 AM EST 6:36 PM EST
Moon 7:28 PM EST (12/30) 8:45 AM EST (12/30)
Length of Visible Light 10h 21m
Length of Day
9h 20m
Waning Gibbous, 95% of the Moon is Illuminated
Dec 30
Waning Gibbous
Jan 4
Last Quarter
Jan 11
New
Jan 18
First Quarter
Jan 26
Full

Hourly Weather History & Observations

Time (EST) Temp. Windchill Dew Point Humidity Pressure Visibility Wind Dir Wind Speed Gust Speed Precip Events Conditions
12:09 AM 24.8 °F 9.0 °F 21.2 °F 86% 29.77 in 2.5 mi WNW 25.3 mph 33.4 mph 0.00 in Snow Light Snow
12:22 AM 24.8 °F 9.3 °F 21.2 °F 86% 29.78 in 3.0 mi WNW 24.2 mph 33.4 mph 0.00 in Snow Light Snow
12:45 AM 24.8 °F 10.0 °F 21.2 °F 86% 29.78 in 2.5 mi WNW 21.9 mph 36.8 mph 0.00 in Snow Light Snow
12:54 AM 24.1 °F 9.4 °F 21.0 °F 88% 29.86 in 3.0 mi WNW 20.7 mph 31.1 mph 0.00 in Snow Light Snow
1:45 AM 24.8 °F 10.7 °F 21.2 °F 86% 29.80 in 1.5 mi WNW 19.6 mph 35.7 mph 0.00 in Snow Light Snow
1:52 AM 24.8 °F 10.0 °F 21.2 °F 86% 29.80 in 1.5 mi WNW 21.9 mph 28.8 mph 0.00 in Snow Light Snow
1:54 AM 24.1 °F 7.7 °F 21.9 °F 91% 29.88 in 1.2 mi West 26.5 mph 33.4 mph 0.00 in Snow Light Snow
2:47 AM 24.8 °F 7.9 °F 19.4 °F 80% 29.83 in 1.0 mi WNW 29.9 mph 41.4 mph 0.00 in Snow Light Snow
2:51 AM 24.8 °F 8.4 °F 19.4 °F 80% 29.83 in 1.2 mi WNW 27.6 mph 41.4 mph 0.00 in Snow Light Snow
2:54 AM 24.1 °F 8.0 °F 19.0 °F 81% 29.92 in 1.2 mi WNW 25.3 mph 41.4 mph 0.00 in Snow Light Snow
3:01 AM 24.8 °F 9.0 °F 19.4 °F 80% 29.84 in 1.8 mi WNW 25.3 mph 41.4 mph 0.00 in Snow Light Snow
3:16 AM 24.8 °F 8.4 °F 19.4 °F 80% 29.84 in 0.8 mi WNW 27.6 mph 35.7 mph 0.00 in Snow Light Snow
3:23 AM 24.8 °F 8.7 °F 19.4 °F 80% 29.85 in 0.8 mi WNW 26.5 mph 35.7 mph 0.00 in Snow Light Snow
3:36 AM 24.8 °F 8.4 °F 19.4 °F 80% 29.86 in 1.0 mi WNW 27.6 mph 39.1 mph 0.00 in Snow Light Snow
3:49 AM 24.8 °F 9.3 °F 21.2 °F 86% 29.87 in 2.0 mi WNW 24.2 mph 32.2 mph 0.00 in Snow Light Snow
3:54 AM 24.1 °F 9.4 °F 19.9 °F 84% 29.96 in 2.0 mi WNW 20.7 mph 35.7 mph 0.00 in Snow Light Snow
4:12 AM 24.8 °F 8.1 °F 19.4 °F 80% 29.88 in 1.5 mi WNW 28.8 mph 39.1 mph 0.01 in Snow Light Snow
4:26 AM 24.8 °F 8.7 °F 19.4 °F 80% 29.89 in 2.5 mi WNW 26.5 mph 36.8 mph 0.01 in Snow Light Snow
4:45 AM 23.0 °F 7.2 °F 19.4 °F 86% 29.90 in 3.0 mi WNW 23.0 mph 42.6 mph 0.01 in Snow Blowing Snow
4:54 AM 23.0 °F 6.6 °F 19.0 °F 85% 30.00 in 3.0 mi WNW 25.3 mph 38.0 mph 0.01 in Snow Blowing Snow
5:04 AM 23.0 °F 6.9 °F 19.4 °F 86% 29.91 in 3.0 mi NW 24.2 mph 33.4 mph 0.00 in Snow Light Snow
5:08 AM 23.0 °F 6.3 °F 19.4 °F 86% 29.92 in 2.5 mi WNW 26.5 mph 35.7 mph 0.00 in Snow Light Snow
5:27 AM 23.0 °F 9.2 °F 19.4 °F 86% 29.92 in 1.2 mi West 17.3 mph 26.5 mph 0.00 in Snow Light Snow
5:54 AM 23.0 °F 8.0 °F 19.9 °F 88% 30.04 in 1.5 mi WNW 20.7 mph 26.5 mph 0.00 in Snow Light Snow
6:11 AM 21.2 °F 6.0 °F 19.4 °F 93% 29.95 in 2.0 mi West 19.6 mph 35.7 mph 0.00 in Snow Light Snow
7:15 AM 21.2 °F 7.3 °F 17.6 °F 86% 30.00 in 3.0 mi West 16.1 mph 32.2 mph 0.00 in Snow Light Snow
7:21 AM 21.2 °F 6.0 °F 17.6 °F 86% 30.01 in 2.5 mi West 19.6 mph 32.2 mph 0.00 in Snow Light Snow
7:49 AM 21.2 °F 8.9 °F 17.6 °F 86% 30.03 in 4.0 mi West 12.7 mph 28.8 mph 0.00 in Snow Light Snow
7:54 AM 21.9 °F 8.7 °F 18.0 °F 85% 30.13 in 3.0 mi West 15.0 mph 28.8 mph 0.00 in Snow Light Snow
8:02 AM 21.2 °F 7.3 °F 17.6 °F 86% 30.04 in 2.0 mi West 16.1 mph 29.9 mph 0.00 in Snow Light Snow
8:12 AM 21.2 °F 5.6 °F 17.6 °F 86% 30.05 in 1.0 mi West 20.7 mph 34.5 mph 0.00 in Snow Light Snow
8:21 AM 21.2 °F 6.4 °F 17.6 °F 86% 30.05 in 0.8 mi West 18.4 mph 35.7 mph 0.00 in Snow Light Snow
8:29 AM 21.2 °F 4.9 °F 17.6 °F 86% 30.05 in 1.2 mi West 23.0 mph 36.8 mph 0.00 in Snow Light Snow
8:54 AM 21.0 °F 5.4 °F 17.1 °F 85% 30.18 in 1.0 mi WNW 20.7 mph 31.1 mph 0.00 in Snow Light Snow
9:01 AM 21.2 °F 6.0 °F 17.6 °F 86% 30.08 in 0.8 mi West 19.6 mph 28.8 mph 0.00 in Snow Light Snow
9:21 AM 21.2 °F 6.4 °F 17.6 °F 86% 30.10 in 1.0 mi West 18.4 mph 26.5 mph 0.00 in Snow Light Snow
9:54 AM 21.0 °F 7.6 °F 18.0 °F 88% 30.22 in 1.0 mi West 15.0 mph 29.9 mph 0.01 in Snow Light Snow
10:43 AM 21.2 °F 9.5 °F 17.6 °F 86% 30.14 in 3.0 mi West 11.5 mph 26.5 mph 0.00 in Snow Light Snow
10:54 AM 21.9 °F 9.2 °F 18.0 °F 85% 30.24 in 2.0 mi West 13.8 mph 25.3 mph 0.00 in Snow Light Snow
11:02 AM 21.2 °F 8.9 °F 17.6 °F 86% 30.14 in 1.2 mi West 12.7 mph 25.3 mph 0.00 in Snow Light Snow
11:54 AM 21.9 °F 10.4 °F 19.0 °F 89% 30.24 in 1.5 mi West 11.5 mph 25.3 mph 0.00 in Snow Light Snow
12:54 PM 21.9 °F 8.7 °F 19.0 °F 89% 30.22 in 1.2 mi West 15.0 mph - 0.00 in Snow Light Snow
1:54 PM 21.9 °F 9.2 °F 19.0 °F 89% 30.22 in 1.2 mi West 13.8 mph 24.2 mph 0.00 in Snow Light Snow
2:23 PM 21.2 °F 6.8 °F 19.4 °F 93% 30.13 in 2.0 mi West 17.3 mph 29.9 mph 0.00 in Snow Light Snow
2:42 PM 21.2 °F 6.0 °F 19.4 °F 93% 30.14 in 2.0 mi West 19.6 mph 25.3 mph 0.00 in Snow Light Snow
2:54 PM 21.9 °F 7.8 °F 19.0 °F 89% 30.25 in 1.8 mi West 17.3 mph 26.5 mph 0.00 in Snow Light Snow
3:22 PM 21.2 °F 6.4 °F 17.6 °F 86% 30.16 in 2.5 mi West 18.4 mph 25.3 mph 0.00 in Snow Light Snow
3:41 PM 21.2 °F 8.9 °F 19.4 °F 93% 30.17 in 3.0 mi West 12.7 mph 23.0 mph 0.00 in Snow Light Snow
3:52 PM 21.2 °F 7.3 °F 19.4 °F 93% 30.17 in 2.5 mi West 16.1 mph - 0.00 in Snow Light Snow
3:54 PM 21.9 °F 8.2 °F 19.0 °F 89% 30.27 in 2.5 mi West 16.1 mph - 0.00 in Snow Light Snow
4:07 PM 21.2 °F 7.3 °F 19.4 °F 93% 30.18 in 2.0 mi West 16.1 mph 26.5 mph 0.00 in Snow Light Snow
4:34 PM 21.2 °F 6.4 °F 17.6 °F 86% 30.19 in 2.0 mi West 18.4 mph 26.5 mph 0.00 in Snow Light Snow
4:54 PM 21.9 °F 7.3 °F 18.0 °F 85% 30.29 in 4.0 mi West 18.4 mph 24.2 mph 0.00 in   Overcast
5:54 PM 21.0 °F 5.0 °F 17.1 °F 85% 30.30 in 4.0 mi West 21.9 mph 31.1 mph 0.00 in   Overcast
6:54 PM 21.0 °F 9.3 °F 17.1 °F 85% 30.30 in 10.0 mi West 11.5 mph 19.6 mph 0.00 in   Overcast
7:54 PM 19.9 °F 7.9 °F 17.1 °F 89% 30.30 in 10.0 mi West 11.5 mph 23.0 mph N/A   Overcast
8:54 PM 19.9 °F 3.9 °F 16.0 °F 85% 30.32 in 6.0 mi West 20.7 mph 29.9 mph 0.00 in   Overcast
9:54 PM 19.9 °F 3.5 °F 16.0 °F 85% 30.31 in 7.0 mi West 21.9 mph 28.8 mph 0.00 in   Overcast
10:54 PM 19.9 °F 3.2 °F 16.0 °F 85% 30.31 in 7.0 mi West 23.0 mph 28.8 mph 0.00 in   Overcast
11:54 PM 19.9 °F 4.3 °F 16.0 °F 85% 30.30 in 9.0 mi West 19.6 mph 28.8 mph N/A   Overcast